Stations météo

Publicité
Fyvie castle, Grande-Bretagne (99010): Température de l'air & dewpoint: 20.09.2017 12:00:00 - 26.09.2017 12:00:00 (BST)Fyvie castle, Grande-Bretagne (99010): Quantités de précipitations: 20.09.2017 12:00:00 - 26.09.2017 12:00:00 (BST)
Date & Time tt [°C] td [°C] rr [mm]
26.09.2017 12:00:00 - - -
26.09.2017 11:00:00 13,4 12,7 0,0
26.09.2017 10:00:00 13,2 12,3 0,0
26.09.2017 09:00:00 12,7 12,3 0,0
26.09.2017 08:00:00 12,7 12,5 0,0
26.09.2017 07:00:00 12,7 12,4 0,0
26.09.2017 06:00:00 13,0 12,6 0,0
26.09.2017 05:00:00 13,4 12,9 0,0
26.09.2017 04:00:00 12,9 12,3 0,0
26.09.2017 03:00:00 13,7 12,6 0,0
26.09.2017 02:00:00 13,6 12,8 0,0
26.09.2017 01:00:00 13,6 12,7 0,0
26.09.2017 00:00:00 13,7 13,1 0,0
25.09.2017 23:00:00 13,3 12,7 0,0
25.09.2017 22:00:00 13,5 12,7 0,0
25.09.2017 21:00:00 13,6 12,6 0,0
25.09.2017 20:00:00 13,6 12,7 0,0
25.09.2017 19:00:00 13,8 13,1 0,0
25.09.2017 18:00:00 14,0 13,2 0,0
25.09.2017 17:00:00 14,2 13,4 0,0
25.09.2017 16:00:00 14,3 13,6 0,0
25.09.2017 15:00:00 14,0 13,6 0,0
25.09.2017 14:00:00 14,0 13,5 0,4
25.09.2017 13:00:00 14,0 13,5 1,8
25.09.2017 12:00:00 14,0 13,4 0,2
25.09.2017 11:00:00 14,1 13,2 0,0
25.09.2017 10:00:00 13,9 13,1 0,0
25.09.2017 09:00:00 13,7 13,0 0,0
25.09.2017 08:00:00 13,6 12,8 0,0
25.09.2017 07:00:00 13,4 12,7 0,0
25.09.2017 06:00:00 13,3 12,4 0,0
25.09.2017 05:00:00 13,3 12,5 0,0
25.09.2017 04:00:00 13,3 12,6 0,0
25.09.2017 03:00:00 13,2 12,5 0,2
25.09.2017 02:00:00 13,2 12,5 1,0
25.09.2017 01:00:00 13,9 12,3 0,0
25.09.2017 00:00:00 13,8 12,1 0,0
24.09.2017 23:00:00 13,7 11,9 0,0
24.09.2017 22:00:00 13,6 11,8 0,0
24.09.2017 21:00:00 13,5 11,5 0,0
24.09.2017 20:00:00 13,4 11,7 0,0
24.09.2017 19:00:00 13,7 11,8 0,0
24.09.2017 18:00:00 14,1 11,6 0,0
24.09.2017 17:00:00 14,3 11,5 0,0
24.09.2017 16:00:00 14,5 11,6 0,0
24.09.2017 15:00:00 14,4 11,4 0,0
24.09.2017 14:00:00 14,7 11,2 0,0
24.09.2017 13:00:00 15,3 10,9 0,0
24.09.2017 12:00:00 15,6 11,0 0,0
24.09.2017 11:00:00 14,5 11,3 0,0
24.09.2017 10:00:00 14,1 11,7 0,0
24.09.2017 09:00:00 13,4 11,7 0,0
24.09.2017 08:00:00 13,2 11,8 0,0
24.09.2017 07:00:00 13,4 12,2 0,0
24.09.2017 06:00:00 13,6 12,3 0,0
24.09.2017 05:00:00 13,6 12,6 0,0
24.09.2017 04:00:00 14,0 12,9 0,2
24.09.2017 03:00:00 14,2 12,9 0,0
24.09.2017 02:00:00 14,1 12,7 0,0
24.09.2017 01:00:00 14,3 12,7 0,0
24.09.2017 00:00:00 14,2 12,5 0,0
23.09.2017 23:00:00 14,3 12,5 0,0
23.09.2017 22:00:00 13,9 12,3 0,0
23.09.2017 21:00:00 13,5 11,8 0,0
23.09.2017 20:00:00 14,1 11,9 0,0
23.09.2017 19:00:00 14,3 11,7 0,0
23.09.2017 18:00:00 14,2 11,4 0,0
23.09.2017 17:00:00 15,4 11,7 0,0
23.09.2017 16:00:00 16,3 10,8 0,0
23.09.2017 15:00:00 16,6 10,6 0,0
23.09.2017 14:00:00 17,1 11,1 0,0
23.09.2017 13:00:00 16,9 11,7 0,0
23.09.2017 12:00:00 16,6 11,0 0,0
23.09.2017 11:00:00 15,1 11,7 0,0
23.09.2017 10:00:00 13,9 11,9 0,0
23.09.2017 09:00:00 12,7 11,6 0,0
23.09.2017 08:00:00 12,1 11,4 0,0
23.09.2017 07:00:00 11,5 11,2 0,0
23.09.2017 06:00:00 10,1 9,8 0,0
23.09.2017 05:00:00 9,9 9,7 0,0
23.09.2017 04:00:00 9,8 9,6 0,0
23.09.2017 03:00:00 9,3 8,7 0,0
23.09.2017 02:00:00 10,6 10,0 0,0
23.09.2017 01:00:00 10,3 9,8 0,0
23.09.2017 00:00:00 11,0 10,2 0,0
22.09.2017 23:00:00 11,0 9,6 0,0
22.09.2017 22:00:00 11,2 9,5 0,0
22.09.2017 21:00:00 11,2 9,0 0,0
22.09.2017 20:00:00 11,6 8,5 0,0
22.09.2017 19:00:00 12,2 9,5 0,0
22.09.2017 18:00:00 12,7 10,0 0,0
22.09.2017 17:00:00 12,9 10,0 0,0
22.09.2017 16:00:00 13,1 9,8 0,0
22.09.2017 15:00:00 13,7 9,5 0,0
22.09.2017 14:00:00 13,7 10,1 0,0
22.09.2017 13:00:00 12,9 10,5 0,0
22.09.2017 12:00:00 12,4 10,7 0,0
22.09.2017 11:00:00 9,7 9,7 0,0
22.09.2017 10:00:00 7,8 7,8 0,0
22.09.2017 09:00:00 3,9 3,9 0,0
22.09.2017 08:00:00 1,9 1,9 0,0
22.09.2017 07:00:00 1,7 1,6 0,0
22.09.2017 06:00:00 2,0 1,9 0,0
22.09.2017 05:00:00 2,6 2,4 0,0
22.09.2017 04:00:00 2,9 2,7 0,0
22.09.2017 03:00:00 3,7 3,5 0,0
22.09.2017 02:00:00 4,7 4,3 0,2
22.09.2017 01:00:00 5,9 5,5 0,0
22.09.2017 00:00:00 7,2 6,7 0,0
21.09.2017 23:00:00 9,1 8,6 0,0
21.09.2017 22:00:00 9,7 9,1 0,0
21.09.2017 21:00:00 10,0 9,6 0,4
21.09.2017 20:00:00 10,1 9,6 0,2
21.09.2017 19:00:00 10,5 10,1 0,4
21.09.2017 18:00:00 10,6 10,3 0,8
21.09.2017 17:00:00 11,1 10,5 0,0
21.09.2017 16:00:00 11,3 10,9 0,8
21.09.2017 15:00:00 11,4 10,8 0,2
21.09.2017 14:00:00 12,2 11,5 0,0
21.09.2017 13:00:00 11,6 11,1 0,2
21.09.2017 12:00:00 11,7 11,3 1,2
21.09.2017 11:00:00 11,0 10,8 3,0
21.09.2017 10:00:00 10,8 10,6 2,2
21.09.2017 09:00:00 10,7 10,4 1,0
21.09.2017 08:00:00 10,4 10,1 0,0
21.09.2017 07:00:00 10,4 10,1 0,0
21.09.2017 06:00:00 10,4 10,1 0,0
21.09.2017 05:00:00 10,7 10,3 0,2
21.09.2017 04:00:00 10,9 10,3 0,0
21.09.2017 03:00:00 11,3 10,9 1,0
21.09.2017 02:00:00 11,8 11,1 0,4
21.09.2017 01:00:00 13,8 13,2 0,0
21.09.2017 00:00:00 13,9 13,4 0,0
20.09.2017 23:00:00 13,8 13,3 0,0
20.09.2017 22:00:00 13,7 13,4 0,8
20.09.2017 21:00:00 13,7 13,4 0,2
20.09.2017 20:00:00 13,6 13,3 0,2
20.09.2017 19:00:00 13,8 13,4 0,8
20.09.2017 18:00:00 14,0 13,4 1,8
20.09.2017 17:00:00 14,1 13,4 0,4
20.09.2017 16:00:00 14,2 13,4 1,0
20.09.2017 15:00:00 14,3 13,4 1,6
20.09.2017 14:00:00 14,7 13,1 0,0
20.09.2017 13:00:00 14,8 13,1 0,0
20.09.2017 12:00:00 14,1 13,0 0,8

tt = Température de l'air
td = dewpoint
rr = Quantités de précipitations

stations d'obs. à proximité